{"data":{"norad_id":49084,"intl_designator":"2021-075K","name":"ONEWEB-0295","alt_names":[],"object_type":"PAYLOAD","status":"ACTIVE","operator":null,"country":"UK","launch_date":"2021-08-21","launch_site_code":"TYMSC","launch_vehicle":null,"mission":null,"orbit_class":"UNKNOWN","rcs_meters":null,"size_class":null,"mass_kg":null,"dimensions":null,"purposes":["comms"],"wikipedia_slug":null,"has_3d_model":false,"image_url":null,"decayed_at":null,"tle_current":{"epoch":"2026-09-20T04:24:48.343968Z","epoch_age_seconds":49323,"freshness":"FRESH","line1":"1 49084U 21075K   26263.18389287  .00000033  00000+0  51674-4 0  9997","line2":"2 49084  87.9201 347.0053 0001840 110.6754 249.4574 13.17650680246108","mean_motion":13.1765068,"eccentricity":0.000184,"inclination_deg":87.9201,"raan_deg":347.0053,"arg_perigee_deg":110.6754,"mean_anomaly_deg":249.4574,"bstar":5.1674e-5,"rev_number":24610,"period_min":109.28541394598,"perigee_km":1192.3136045437,"apogee_km":1195.1000430709,"semimajor_km":7571.8438238073,"source":"CELESTRAK","updated_at":"2026-09-20T09:00:44.632616Z"}}}